Torna al catalogo

SL-16 DEB

AttivoLEO
NORAD 22394·DEBRIS·🇷🇺 Russia

Lanciato Dec 25, 1992 da Baikonur Cosmodrome

Loading…

Prossimi Passaggi (prossime 24 ore)

TLE

AggiornatoSource: Space-Track

Epoca: Sep 14, 2026, 19:37 UTC

1 22394U 92093CK  26257.81789005  .00001108  00000-0  62624-3 0  9996
2 22394  71.2744  98.6130 0070665 270.2052  89.0973 14.11078292723807

Traccia SL-16 DEB in tempo reale con AllMySat

Download on the App Store